Volver al catálogo

STARLINK-4809

ActivoComunicacionesVLEO
NORAD 53857·PAYLOAD·🇺🇸 United States

Lanzado Sep 19, 2022 desde Cape Canaveral Space Force Station

Loading…

Próximos Pases (próximas 24 horas)

TLE

ActualizadoSource: CelesTrak SupGP

Época: Sep 15, 2026, 02:46 UTC

1 53857C 22114AR  26258.11576389  .00046854  00000+0  15068-2 0  2587
2 53857  53.1584 149.2182 0001005  80.3243  38.2027 15.31676147    13

Sigue STARLINK-4809 en tiempo real con AllMySat

Download on the App Store